Theta_e
315 317 317 316 316 316 316 315 314 315 316 315 316 315 315 314 316 318 318 318 318 318 318 319 319 319 319 321 320 317 319 319 322 331 334 333 335 335 336 336 334 335 335 335 335 334 335 336 338 339 338 338 338 339 337 332 332 334 335 336 336 334 331 331 330 328 327 330 334 334 334 334 333 333 333 333 332 332 332 332 331 330 331 330 329 328
317 318 318 317 316 317 317 319 319 318 317 317 316 315 315 315 316 318 319 317 318 319 319 320 319 319 322 323 321 317 318 319 320 329 333 333 334 334 334 334 333 334 334 334 334 334 335 336 338 338 338 337 335 339 338 335 334 333 333 332 332 331 329 329 329 328 328 329 333 332 329 330 331 332 333 333 333 332 332 332 331 331 330 329 329 330
318 318 318 316 316 318 318 320 321 321 320 318 317 316 316 317 317 319 322 318 317 320 320 320 318 320 323 324 323 319 318 318 318 328 332 332 334 333 333 333 332 332 332 332 331 333 336 338 338 337 337 336 334 338 336 331 330 331 330 329 328 329 328 329 330 329 330 331 331 330 329 329 330 331 333 333 333 332 332 331 331 331 330 329 329 330
319 317 317 316 317 319 320 320 321 322 321 320 318 316 316 317 316 318 323 320 317 320 321 322 320 320 323 324 324 319 317 318 317 325 331 332 333 332 332 332 331 330 330 330 329 329 334 338 338 336 336 334 332 335 332 324 324 327 329 328 328 330 327 328 327 326 332 333 330 331 331 331 331 332 333 333 332 332 331 332 332 331 330 329 330 330
318 317 316 317 317 318 319 320 322 321 320 321 320 318 317 318 317 318 321 319 319 323 323 320 319 322 323 322 324 320 317 319 317 319 324 328 331 330 331 330 329 330 327 329 328 326 332 336 336 335 334 332 330 334 332 326 324 326 328 328 329 328 327 328 327 327 333 334 332 333 332 331 332 333 332 332 332 331 331 332 331 331 331 330 329 329
316 317 317 317 317 317 317 319 321 321 318 321 323 322 320 320 320 320 319 318 319 322 325 319 316 323 325 319 322 321 318 319 318 317 318 321 326 327 331 331 329 328 326 328 326 325 332 336 335 334 334 332 332 334 332 329 326 326 327 328 328 327 327 330 330 331 335 334 333 333 332 331 332 333 332 331 331 330 331 331 330 331 330 329 328 328
316 317 317 318 318 317 317 316 318 319 319 319 321 321 321 320 320 320 318 317 316 318 325 320 315 321 324 321 323 321 319 319 318 319 317 316 320 322 327 331 330 330 328 326 325 331 335 336 334 334 334 333 333 334 333 330 328 327 328 327 326 327 328 331 333 334 334 334 334 333 332 331 331 331 332 331 331 331 331 331 331 330 330 329 328 328
317 318 317 318 318 318 317 316 317 319 320 320 321 319 319 319 319 319 317 317 317 317 321 321 317 317 319 323 325 320 319 319 317 320 321 320 322 323 326 329 330 330 328 327 331 334 335 334 333 333 333 334 334 333 333 331 328 327 327 327 326 326 327 331 333 334 334 333 332 333 333 332 330 330 332 332 331 331 330 331 331 330 330 329 327 327
318 320 319 318 318 318 317 317 318 319 320 321 320 318 318 317 317 318 316 316 317 316 316 320 319 315 318 325 325 319 318 321 322 325 327 327 328 330 332 331 330 330 330 331 333 334 335 334 333 331 331 334 335 334 333 332 330 329 327 327 327 326 327 330 333 334 335 334 333 334 333 332 331 331 332 332 332 331 330 330 331 330 329 327 327 329
318 318 318 317 318 318 318 319 319 319 319 320 318 318 317 316 317 318 318 317 316 317 317 318 317 315 319 324 325 325 326 326 327 327 328 330 331 335 335 334 334 333 333 334 334 333 333 333 331 329 331 334 335 334 334 333 332 330 329 329 329 328 327 329 332 334 336 336 335 334 333 331 331 331 332 332 332 331 330 330 330 328 328 327 328 329
316 316 317 317 318 318 318 320 319 318 319 318 317 317 315 316 318 318 322 320 318 321 320 317 318 316 315 320 327 331 330 329 331 331 330 331 332 336 335 335 336 336 336 337 336 335 334 333 331 331 333 334 333 333 333 333 333 331 330 331 331 329 329 330 332 334 336 336 334 333 333 332 331 332 332 331 332 331 330 330 329 328 329 328 328 329
315 315 316 316 318 318 318 319 318 317 318 317 317 316 315 318 318 316 319 319 318 322 321 315 317 315 314 323 332 333 332 332 333 332 332 333 334 335 335 334 336 336 336 337 337 337 336 335 334 334 334 333 332 332 334 334 333 332 333 333 332 331 331 332 332 333 335 335 334 333 333 332 332 332 331 331 331 330 330 330 328 328 329 328 329 329
317 316 315 317 318 317 318 318 317 318 318 317 317 317 316 317 318 317 319 319 320 322 319 314 315 315 319 328 333 333 334 333 331 331 332 334 335 335 334 333 334 336 336 337 336 334 333 334 334 334 336 335 332 331 333 335 334 332 332 332 332 332 332 333 332 333 334 335 335 334 333 332 332 331 330 330 331 330 330 329 328 328 328 327 327 328
319 318 315 316 319 317 318 317 317 318 317 316 317 318 318 317 317 318 319 319 320 319 317 316 315 317 326 334 333 334 334 331 331 332 333 335 335 335 334 333 334 334 335 336 336 333 332 332 333 331 332 331 330 329 331 334 334 332 330 330 331 332 331 332 332 333 334 335 334 334 333 332 332 331 330 330 330 329 329 328 328 328 327 327 327 328
318 321 318 317 318 317 318 317 317 318 316 316 316 318 320 319 316 318 319 318 319 322 321 317 317 322 333 339 335 332 331 330 332 332 332 333 333 333 332 332 333 332 331 332 332 331 331 331 331 331 330 329 329 329 331 333 333 331 329 328 331 332 331 332 332 332 333 334 334 333 332 332 332 331 330 330 329 328 327 328 328 328 329 329 329 329
315 318 319 317 317 317 317 317 317 316 317 319 316 315 319 321 318 317 319 319 319 325 326 322 325 329 332 337 334 330 331 331 331 331 330 330 330 330 330 329 329 329 329 329 328 328 329 329 330 331 331 330 329 330 331 331 332 331 329 329 332 332 332 332 331 331 332 333 333 333 332 332 332 331 330 329 328 326 326 327 327 329 331 330 329 330
314 319 320 315 316 317 316 318 317 316 319 321 317 316 318 321 320 317 319 320 317 321 322 325 334 334 330 334 334 332 334 332 330 329 328 328 328 328 328 328 328 328 328 327 327 327 327 328 329 329 331 330 329 330 331 331 331 331 330 330 331 332 332 331 330 330 332 333 333 333 331 330 331 331 330 329 327 325 325 326 327 330 331 330 329 329
317 320 322 317 317 318 316 317 317 315 318 318 315 318 319 318 318 316 317 319 316 319 319 322 334 335 332 335 335 333 335 332 329 328 327 326 326 326 328 328 328 328 328 327 328 328 328 327 326 326 328 329 329 330 331 331 332 331 331 330 331 332 332 331 331 331 331 331 332 331 328 328 330 330 330 328 326 325 325 327 329 330 330 329 328 328
316 316 320 317 316 318 317 316 317 316 315 315 316 318 319 320 320 316 315 318 320 321 318 318 328 331 329 332 332 332 334 331 328 328 326 325 325 326 328 328 328 328 328 328 329 328 328 328 326 324 326 328 329 329 330 331 332 333 333 332 332 332 332 331 331 331 330 331 331 330 328 328 329 330 329 328 326 326 327 329 329 329 329 329 328 328
316 316 320 320 316 318 318 317 320 319 316 315 316 316 317 322 322 317 317 320 321 322 320 321 330 332 328 330 331 330 329 328 327 327 325 325 325 326 327 327 328 328 328 328 328 327 327 327 327 326 326 328 329 329 330 331 332 332 332 333 333 332 331 330 331 331 330 331 330 328 327 328 329 329 329 328 327 327 329 329 329 329 329 329 328 328
316 317 322 324 318 316 318 318 320 319 317 316 316 315 316 318 319 319 319 319 318 322 324 324 330 333 329 328 328 327 327 325 325 326 325 324 325 327 326 326 327 328 328 328 327 327 327 327 327 327 327 329 329 329 330 330 330 330 331 332 332 332 332 331 331 331 330 330 328 325 326 328 329 328 328 328 328 328 329 329 328 328 328 328 327 326
320 320 322 323 319 318 319 317 317 318 318 317 317 316 316 317 318 319 320 321 319 321 327 330 333 332 329 326 325 325 326 325 324 325 325 325 325 325 325 325 325 326 327 327 327 327 327 328 328 328 329 329 329 330 330 329 329 330 330 331 330 331 332 331 331 332 331 330 328 325 326 328 328 327 327 327 327 328 328 328 328 328 327 326 324 324
322 321 320 320 319 318 318 317 318 319 317 317 318 317 316 317 318 317 322 329 327 323 327 333 335 331 326 325 325 324 324 325 324 325 325 324 324 323 322 323 323 323 324 325 326 326 327 327 328 329 328 329 329 329 329 329 329 330 330 330 329 330 331 330 330 331 331 330 328 325 326 327 327 326 325 324 325 327 328 327 328 327 324 322 322 326
324 322 319 319 319 319 319 317 318 318 318 321 321 319 319 319 316 319 328 337 333 327 328 331 333 331 326 325 324 323 323 324 324 325 324 323 322 321 321 321 321 321 322 323 324 324 326 326 327 327 327 327 327 327 328 328 329 329 330 329 327 329 330 330 330 329 329 329 328 326 326 327 325 324 323 322 324 325 326 326 325 323 321 319 323 327
325 326 321 319 321 325 324 321 323 323 322 323 321 320 322 321 320 323 328 333 333 328 329 332 333 331 327 324 323 323 324 324 324 324 322 321 320 320 319 320 320 319 320 321 322 322 324 325 326 327 327 326 326 326 327 327 327 328 329 328 327 328 330 330 330 329 327 328 329 328 327 326 325 324 323 323 324 325 326 325 322 321 319 319 323 326
325 327 324 321 322 325 324 324 328 327 324 323 322 322 323 322 323 325 325 330 332 326 325 330 333 331 326 324 324 323 324 324 324 323 321 320 319 318 317 317 317 317 318 318 319 321 322 324 325 326 326 326 326 326 326 326 326 326 327 327 327 327 329 330 330 329 328 328 329 328 326 325 325 325 325 325 325 326 326 325 324 323 321 320 323 326
325 326 326 325 325 325 325 325 326 325 324 324 322 323 324 324 325 329 331 330 328 325 327 330 330 330 328 325 325 323 322 322 322 321 320 318 317 316 314 314 314 315 316 316 318 320 321 323 324 325 325 326 326 326 326 325 326 326 326 327 327 327 328 330 330 329 328 328 329 327 325 325 326 326 325 326 326 326 326 325 325 323 322 322 326 326
327 327 327 326 325 325 325 324 322 322 323 323 322 322 324 324 326 332 335 329 325 326 330 329 327 328 329 326 323 321 319 318 317 317 316 315 314 313 312 312 312 313 314 315 315 318 320 321 322 323 324 325 325 325 325 325 325 325 326 326 326 327 328 328 328 328 328 328 328 326 325 325 325 325 325 326 326 326 326 325 324 323 323 325 326 324
328 328 325 325 325 324 323 323 323 323 321 319 319 320 322 323 326 328 327 325 326 329 328 327 327 328 327 324 319 317 316 315 314 314 313 312 311 310 310 310 310 310 311 312 312 315 317 318 320 322 323 324 324 324 324 325 325 325 325 326 326 327 328 328 328 327 327 327 327 325 325 326 326 326 326 326 326 326 326 325 324 324 325 325 324 323
325 326 324 323 324 324 324 324 323 321 319 317 316 317 318 321 322 324 323 323 326 326 323 323 324 322 320 318 315 313 313 312 311 311 310 310 309 308 307 307 307 307 308 309 310 312 315 316 318 321 322 322 323 323 324 324 324 324 324 325 325 326 327 328 327 326 325 326 327 326 326 326 326 326 326 326 326 326 325 323 323 323 324 324 323 323
319 323 323 322 323 323 324 323 320 318 317 316 315 314 316 319 321 321 322 322 324 325 322 321 321 318 316 314 312 311 310 310 309 308 308 308 307 306 306 305 305 305 306 307 308 310 313 315 317 319 320 320 320 322 323 323 324 323 323 324 324 325 326 327 327 327 325 325 327 326 326 325 325 326 326 326 325 325 324 323 322 322 323 323 323 323
318 321 322 321 322 322 323 322 320 318 318 318 316 313 314 318 320 320 318 317 321 324 323 321 320 317 314 311 309 309 308 308 308 307 307 306 305 305 304 304 304 304 305 306 307 309 311 313 315 316 317 318 318 320 321 322 323 322 322 323 324 325 326 326 327 327 326 325 325 325 324 325 326 325 325 325 325 324 324 323 323 323 322 320 321 322
320 321 321 321 321 320 321 323 320 319 321 321 316 312 312 315 317 318 317 316 317 319 321 322 319 315 311 309 308 307 306 306 306 305 305 304 304 303 303 303 303 303 305 305 305 307 308 310 312 313 314 315 317 318 319 320 321 321 322 323 324 324 325 326 326 327 326 325 324 323 323 325 326 325 325 325 325 324 323 322 323 322 321 320 320 321
322 322 322 321 321 320 321 322 322 321 320 318 313 310 311 313 314 315 316 316 316 315 316 317 314 311 308 307 306 306 305 304 304 304 304 303 303 302 302 302 302 303 304 304 305 306 307 307 309 310 312 313 315 316 317 318 319 320 321 322 323 323 323 324 325 326 326 326 325 325 325 325 325 325 324 324 324 324 323 322 322 321 320 320 320 320
321 321 322 321 320 320 320 321 324 322 317 313 311 309 309 311 312 313 314 313 313 312 312 311 309 308 307 306 305 304 304 303 303 303 302 302 302 301 301 301 301 302 303 304 305 305 306 307 307 308 310 311 313 314 316 317 317 318 319 320 320 321 321 322 323 323 324 324 324 325 325 326 326 325 324 324 324 323 322 321 322 321 320 320 320 319
320 322 321 320 319 319 319 320 321 317 312 311 310 309 309 310 311 312 314 312 311 311 310 308 307 306 305 305 304 303 303 303 302 302 302 301 301 301 301 301 301 302 302 303 304 305 305 306 306 307 308 309 311 314 315 315 316 317 318 318 319 319 319 320 321 322 322 322 321 321 322 324 325 325 324 324 324 323 322 321 322 321 320 320 320 320
315 318 319 320 321 318 317 317 315 313 311 310 309 309 309 309 309 310 313 313 311 310 309 308 307 306 305 305 304 303 303 303 302 302 301 301 300 300 301 301 301 302 302 303 304 305 305 305 305 306 307 308 310 312 312 313 314 315 317 317 317 317 318 318 319 320 321 322 321 320 320 320 322 322 323 323 324 323 322 320 320 320 319 319 319 319
314 314 317 320 320 317 315 314 314 315 313 310 308 308 309 309 308 309 312 312 310 309 309 307 306 306 306 305 304 305 305 303 302 301 301 301 300 300 300 300 301 301 302 303 304 304 306 306 306 305 306 307 308 309 310 311 313 314 315 315 315 315 316 317 317 318 319 320 321 321 320 319 319 319 321 322 322 322 320 318 317 317 316 317 318 318
315 314 315 317 318 317 316 316 315 315 312 308 306 307 308 309 308 309 313 312 309 309 309 308 307 307 306 306 306 306 306 304 301 300 300 300 300 299 299 299 299 300 301 302 303 304 305 306 306 307 306 306 306 307 308 310 313 314 315 314 314 314 315 314 314 315 316 317 318 320 320 320 319 319 320 320 320 321 319 317 318 318 317 317 318 316
317 316 315 316 317 316 316 314 312 310 308 306 305 306 307 307 307 311 316 313 308 307 309 308 307 307 306 305 305 304 303 302 301 299 299 299 299 299 299 299 299 299 300 300 302 303 304 305 306 307 307 306 306 305 306 308 310 312 312 312 313 314 313 313 313 313 314 315 316 317 318 318 319 319 319 320 319 319 319 318 318 319 318 318 317 315
315 315 315 314 314 313 312 311 310 308 306 304 304 305 306 307 309 314 314 310 305 305 306 306 305 304 304 303 302 301 300 300 299 299 299 299 299 299 299 299 299 300 300 300 301 302 303 304 305 305 306 305 305 306 306 306 306 307 307 308 310 310 310 311 312 313 313 314 314 315 315 316 316 317 317 318 318 318 319 319 318 317 317 318 317 315
311 313 314 313 313 313 312 310 309 308 305 303 304 305 306 308 312 311 307 306 304 303 303 303 302 302 302 301 299 298 298 298 298 298 299 299 299 298 299 299 299 300 300 300 300 301 301 302 303 304 304 305 306 306 306 306 306 304 304 304 304 305 307 310 312 312 313 314 314 314 314 314 314 314 314 315 316 317 318 317 317 317 317 317 317 317
308 310 311 309 309 311 310 309 309 308 305 303 304 305 305 307 308 305 303 304 303 301 301 301 300 300 300 299 298 298 298 298 298 299 298 298 298 298 299 299 299 300 300 300 300 300 300 301 301 301 302 303 305 306 306 307 307 306 306 304 302 301 302 304 307 310 312 313 313 313 313 313 313 312 312 312 313 314 314 315 316 316 317 317 317 317
306 309 310 307 306 308 308 306 306 305 303 302 303 304 304 305 305 304 303 302 301 300 300 300 299 299 299 298 298 299 299 299 299 298 298 298 298 298 299 299 299 300 300 300 300 301 301 301 300 300 300 301 303 305 306 307 307 307 307 307 305 304 303 301 302 304 307 308 309 310 311 312 312 312 312 311 311 311 311 312 313 315 316 316 317 317
304 306 307 305 304 305 305 304 303 302 301 302 303 303 304 304 304 303 302 300 300 300 300 299 299 299 299 299 299 299 299 299 298 298 298 298 298 298 298 298 298 299 299 299 299 299 300 300 300 300 300 299 300 302 304 305 307 307 307 307 307 307 306 305 304 303 302 301 302 303 305 307 309 311 312 312 312 311 310 310 311 312 313 314 315 315
305 305 305 305 304 304 304 303 302 301 301 302 302 303 303 303 302 301 301 300 300 300 300 300 300 300 299 299 299 299 299 299 298 298 298 298 298 298 298 298 298 298 298 298 298 298 298 299 299 299 299 298 298 299 300 301 303 304 304 305 306 307 307 307 306 305 304 302 301 300 300 301 303 304 306 308 310 311 311 310 310 310 310 310 311 311
305 305 305 305 305 305 304 303 302 301 301 301 302 302 302 301 301 301 301 300 300 300 300 300 300 300 300 300 300 300 299 299 299 299 298 298 298 298 298 299 299 299 299 299 298 298 298 298 299 299 299 298 298 298 299 299 299 299 300 301 303 305 306 307 307 306 306 305 304 304 303 302 301 301 302 302 303 305 307 308 309 310 309 309 308 308
305 304 304 304 304 304 304 302 302 301 301 301 301 301 301 301 301 301 301 301 301 301 301 300 300 300 300 300 299 299 299 299 299 299 299 299 298 298 298 298 298 299 299 299 299 299 299 299 299 299 299 299 298 298 299 299 300 300 300 300 301 302 302 303 303 303 304 304 304 305 304 304 303 303 302 300 299 300 301 303 305 307 308 308 308 307
305 304 304 304 304 304 303 303 302 302 302 301 301 301 301 301 301 301 301 301 300 300 300 300 300 300 299 299 299 299 299 299 299 299 299 299 298 298 298 297 297 298 299 299 299 299 299 299 299 299 299 299 299 298 298 299 300 300 301 301 301 301 301 300 298 298 299 300 301 302 302 302 302 302 301 299 299 298 298 298 299 301 302 304 305 306
304 303 304 304 304 304 304 303 303 302 302 302 301 301 300 300 300 300 300 300 300 300 300 299 299 299 299 299 299 298 298 298 298 298 298 298 297 298 298 297 297 297 298 299 299 299 299 299 299 299 299 299 299 299 298 298 299 299 300 301 302 302 301 300 299 298 299 299 300 301 302 302 302 302 301 301 300 299 298 297 297 297 297 299 300 302
304 304 304 304 304 303 303 303 303 302 302 302 301 301 300 300 300 300 300 300 299 299 299 299 299 299 299 299 298 298 298 298 298 298 298 297 297 297 297 297 297 297 297 298 299 299 299 299 299 299 298 298 299 299 298 298 298 299 299 300 301 302 302 301 301 300 301 301 301 302 302 302 302 302 302 302 302 301 300 299 298 297 297 297 297 297
Wind_Speed
11 4 4 6 6 7 8 9 10 9 9 11 9 6 6 4 7 9 5 10 11 5 6 8 6 6 7 7 8 8 3 5 10 18 21 24 25 25 27 25 23 22 20 18 17 15 14 14 13 13 15 15 13 14 14 12 14 18 19 19 18 14 11 11 12 14 13 14 17 16 13 11 11 13 14 14 13 14 15 17 18 18 19 19 17 15
10 5 5 8 9 10 10 9 10 10 11 10 7 6 6 4 6 10 4 10 10 4 4 5 3 5 6 6 10 12 6 4 6 14 19 23 26 26 27 27 25 23 22 20 19 18 14 13 14 16 17 16 15 17 17 16 14 15 16 16 17 15 15 16 15 16 16 16 20 19 13 10 10 14 16 15 14 13 14 15 16 17 19 20 17 16
6 4 8 11 9 9 10 9 9 10 10 9 6 4 5 5 5 8 6 6 6 4 3 6 4 5 6 4 7 10 7 7 10 19 25 25 26 27 28 28 26 25 23 21 21 20 15 14 16 18 18 17 17 19 19 16 7 12 16 16 17 16 15 15 16 16 15 17 22 19 15 14 14 16 17 15 15 14 14 15 16 17 19 21 19 17
3 6 12 11 10 9 9 10 8 8 7 6 5 3 5 6 5 5 6 4 1 2 4 6 3 3 3 4 5 10 13 16 16 17 31 31 31 31 31 31 29 26 24 24 25 23 17 16 17 19 20 19 18 20 20 14 4 13 19 19 19 20 18 17 17 15 14 18 20 17 17 18 17 18 17 16 15 15 16 18 18 18 20 21 20 17
4 10 15 12 11 10 9 9 7 6 5 5 6 4 4 6 6 4 6 8 4 3 3 5 1 3 2 2 4 10 13 14 20 15 19 28 33 34 34 34 31 26 24 24 26 27 22 19 20 21 22 20 19 21 22 17 11 12 18 19 20 22 21 20 20 17 18 20 20 20 22 21 20 19 18 18 18 18 20 21 20 20 21 21 19 17
8 13 15 12 12 12 10 7 7 7 4 4 3 3 4 6 8 7 8 9 6 5 5 0 2 6 3 3 5 8 9 8 13 15 11 19 28 30 32 36 33 28 23 21 25 29 25 23 23 24 24 22 21 21 19 15 13 15 17 17 18 22 23 22 22 21 22 22 22 22 23 23 23 22 21 21 22 22 23 21 19 19 20 20 18 16
7 13 12 10 12 13 11 8 9 8 4 3 1 2 5 5 7 10 9 7 2 3 6 1 2 6 3 4 7 7 8 10 10 10 14 18 22 23 26 34 34 30 26 25 25 23 23 25 25 25 24 21 21 20 17 16 15 16 15 14 17 21 21 21 23 24 24 24 23 21 20 22 24 22 21 22 23 22 22 21 20 20 20 20 18 16
7 12 10 10 10 10 9 8 9 8 5 3 3 3 7 6 8 10 8 6 3 4 6 3 2 2 4 5 7 7 8 10 10 7 6 7 6 17 25 32 35 31 30 28 22 16 18 23 23 23 23 21 20 18 16 17 18 17 14 12 16 20 19 20 23 25 26 25 25 24 22 22 21 20 19 21 22 21 21 22 21 20 21 20 18 17
6 10 10 11 9 6 7 6 8 9 5 4 5 6 9 8 10 11 8 6 4 5 6 5 4 2 5 5 6 8 6 5 3 2 5 12 13 16 19 24 29 29 28 24 18 16 18 22 22 23 24 22 19 16 16 19 20 20 16 14 16 18 19 20 23 27 27 26 26 26 25 24 22 20 19 20 21 21 21 21 20 20 20 19 17 17
6 10 12 11 7 5 5 4 7 8 5 6 7 8 8 8 7 4 4 3 2 4 5 3 1 1 5 5 4 4 3 2 1 4 6 14 21 19 15 18 20 20 20 17 18 21 22 25 25 25 25 22 19 18 19 20 22 22 19 19 20 19 19 20 23 26 26 25 26 27 26 25 24 23 22 22 22 21 21 21 20 19 18 17 16 16
9 12 11 7 6 6 5 3 3 5 4 6 8 8 7 7 4 1 2 3 3 3 5 4 4 4 4 4 4 2 3 4 2 5 6 12 21 22 18 19 17 15 16 14 16 19 20 23 24 24 25 23 21 22 21 21 23 23 22 22 21 20 20 21 22 24 24 24 26 27 25 24 25 26 24 23 23 22 21 21 20 19 17 16 16 15
10 12 7 6 8 5 4 4 4 6 5 4 5 6 4 5 3 2 1 4 2 4 4 4 6 4 4 3 4 4 6 7 6 7 7 9 15 20 22 20 17 16 14 13 13 12 13 17 21 24 25 24 23 23 23 23 24 25 24 21 20 20 21 21 22 22 22 23 24 26 25 24 24 25 23 23 24 23 21 21 20 18 17 17 16 16
8 8 6 5 7 5 2 3 3 3 4 4 3 6 4 2 2 2 2 2 2 5 4 5 7 4 3 4 2 5 7 8 9 10 12 12 14 19 22 21 18 14 12 12 13 11 9 8 14 18 21 22 22 20 20 21 23 26 24 20 19 21 22 22 21 20 20 21 22 25 25 25 24 22 20 21 23 22 21 20 20 19 18 18 17 17
5 6 6 4 4 7 5 3 2 2 3 5 3 5 5 2 1 2 2 2 3 5 6 6 5 3 1 2 3 5 6 9 13 17 19 19 20 22 21 19 15 10 9 7 7 6 3 2 6 10 9 7 9 9 15 16 18 22 22 21 22 22 22 21 19 17 18 18 19 22 22 22 23 20 19 20 21 20 19 19 19 18 18 18 17 17
3 5 6 5 3 9 8 5 4 3 3 5 5 4 5 4 3 3 2 3 4 4 4 3 3 2 2 3 5 4 7 14 18 20 23 22 22 22 20 18 16 12 10 8 6 4 3 6 8 10 8 7 12 4 11 14 16 21 23 24 23 22 21 19 17 16 17 17 17 16 15 17 19 18 18 19 19 18 18 17 18 17 16 17 17 17
5 6 6 8 8 9 9 8 6 2 2 4 5 5 5 5 4 4 4 5 3 1 2 1 2 2 2 4 5 3 8 14 19 22 24 23 21 21 20 20 19 17 14 13 13 10 6 1 5 8 8 4 4 3 8 14 17 21 23 23 22 21 18 15 15 14 15 16 16 14 12 13 16 17 18 19 19 18 17 17 17 16 16 16 16 15
3 5 5 8 10 9 9 10 9 6 2 3 3 5 5 6 6 4 5 4 3 2 2 1 2 1 1 3 5 4 7 9 14 17 19 20 22 22 22 21 20 17 15 14 14 13 11 8 1 3 4 5 5 6 10 12 15 18 19 20 21 20 16 13 13 13 14 14 15 14 13 13 15 17 18 18 18 18 18 18 18 17 16 15 15 15
4 4 6 5 6 7 10 10 10 12 9 3 4 5 4 3 2 2 2 2 1 1 4 3 5 2 1 1 4 4 7 8 10 11 13 17 20 19 18 19 18 15 14 15 14 10 8 8 8 5 2 4 7 9 10 11 13 14 14 15 19 19 14 11 12 13 13 14 16 15 14 15 16 18 17 16 18 19 20 20 19 19 18 16 17 18
5 3 6 3 3 5 7 7 6 10 13 8 5 5 3 3 3 2 3 2 1 2 3 1 4 2 2 1 4 5 7 9 9 9 10 13 15 15 15 16 16 16 16 17 16 11 7 8 9 9 7 4 3 6 8 10 10 11 11 12 14 16 14 11 12 13 14 17 18 15 14 16 17 19 18 17 19 21 22 22 22 21 19 18 20 20
4 2 4 4 4 4 3 3 3 4 8 8 5 4 2 3 4 3 4 4 3 3 3 0 2 0 1 1 4 7 7 8 9 8 7 8 11 13 13 14 15 18 20 20 17 13 10 8 6 6 7 4 2 3 6 8 8 8 9 12 14 14 13 12 13 16 16 17 17 15 15 18 19 20 19 19 21 22 23 23 23 23 21 21 21 20
2 2 3 5 3 3 2 3 5 4 4 6 4 3 3 2 3 2 3 3 4 4 3 2 1 3 2 2 5 7 7 7 7 6 5 8 14 16 14 13 13 15 19 20 19 17 13 10 7 5 5 3 1 1 3 5 7 6 6 10 11 12 13 13 15 18 16 16 19 19 18 20 20 20 20 21 22 23 24 23 23 22 21 21 20 19
1 2 4 4 3 2 4 4 8 7 5 5 5 5 5 3 3 2 3 4 1 3 3 4 2 4 2 3 6 7 6 5 6 7 7 12 18 19 18 17 15 18 21 19 17 17 14 11 9 10 9 7 4 2 2 5 6 6 7 9 9 10 12 12 14 17 17 18 21 19 18 20 20 20 21 22 23 24 24 22 21 21 20 19 18 18
1 1 2 2 4 4 6 5 3 5 7 4 2 1 4 5 4 4 3 3 1 3 2 4 2 2 1 4 7 7 7 8 11 11 10 14 19 19 20 21 21 23 25 20 17 16 15 11 9 10 11 9 7 6 5 5 7 8 7 7 6 7 9 10 12 15 17 20 20 17 19 21 20 20 21 22 23 24 22 20 19 19 18 18 18 18
3 1 2 2 4 3 6 7 3 2 4 2 3 7 5 4 5 5 5 3 3 3 2 4 1 2 1 6 8 10 11 13 15 14 13 15 18 20 21 22 23 23 23 21 19 18 18 18 16 14 13 12 9 8 8 7 9 8 5 5 5 7 10 12 14 15 17 20 21 19 21 22 21 21 21 21 23 22 19 18 18 17 17 17 19 18
3 1 2 2 2 4 5 6 5 6 5 2 2 8 11 10 7 1 1 4 3 4 5 6 2 3 3 6 8 9 11 13 15 17 17 16 18 21 21 21 20 20 21 21 20 20 21 22 21 18 17 15 11 9 9 7 5 5 4 5 5 8 12 14 15 17 18 20 23 22 22 23 23 21 20 21 23 20 17 16 15 16 16 18 20 18
1 0 2 3 2 1 1 1 2 3 3 1 4 10 13 13 10 4 3 5 2 3 5 7 4 3 5 8 8 7 8 11 13 17 18 19 21 22 21 19 18 19 21 21 21 22 22 23 22 20 19 18 15 13 12 10 8 6 3 3 5 9 14 16 19 20 19 20 22 23 23 24 23 21 21 22 22 20 18 16 14 14 16 19 20 18
2 2 3 4 4 4 4 3 3 2 1 4 8 12 11 10 7 4 3 2 1 1 2 3 6 7 7 8 9 7 8 10 10 14 18 19 20 20 19 18 18 19 19 19 19 20 21 22 21 20 21 20 18 15 14 12 10 7 5 3 5 10 15 19 21 22 21 21 21 22 23 24 23 24 24 23 22 20 19 18 15 14 16 20 20 17
3 3 3 5 5 3 4 3 4 4 4 6 9 11 10 9 8 6 4 2 2 2 3 1 7 10 7 9 10 8 8 10 10 14 17 18 18 18 18 17 18 18 17 18 20 19 19 21 19 18 20 19 16 14 13 12 10 9 7 4 3 9 15 18 20 21 22 21 20 22 24 23 24 26 25 22 22 22 21 19 16 16 18 19 19 18
4 1 1 4 4 2 2 5 7 7 7 8 10 10 9 9 8 6 2 1 3 4 1 0 8 9 6 9 10 9 10 11 13 16 18 19 19 19 18 18 18 18 18 19 20 19 18 18 17 16 16 15 13 12 12 11 9 8 7 6 3 6 12 15 17 19 19 19 21 23 25 25 26 26 24 23 24 23 21 19 18 19 20 19 19 19
3 0 1 3 3 2 5 7 7 8 8 8 9 8 8 8 7 5 2 2 3 7 4 6 12 10 7 8 10 12 14 16 18 21 21 21 19 18 18 18 18 18 18 19 19 19 17 15 14 13 12 13 13 11 11 10 8 6 6 6 6 2 7 11 16 19 18 19 22 24 27 28 27 26 24 23 23 21 20 19 18 19 20 20 19 18
3 2 2 3 3 1 5 9 9 10 10 9 9 10 10 9 6 6 5 4 2 7 8 8 10 8 7 10 13 15 18 19 20 21 21 19 17 16 17 17 17 17 18 18 18 18 16 14 14 13 12 13 14 12 11 10 8 6 4 4 5 4 3 8 13 17 18 20 21 23 26 27 26 26 24 22 23 22 21 20 19 19 19 20 19 16
2 1 1 3 2 1 4 8 9 9 11 10 9 11 11 8 6 5 4 4 3 3 9 9 6 4 6 10 14 17 20 20 19 18 19 18 17 16 16 16 16 18 19 19 19 19 17 16 14 14 13 14 15 14 13 11 10 10 9 6 4 3 1 7 13 16 17 19 19 19 23 24 26 28 26 24 26 23 21 22 21 20 19 19 19 17
2 2 1 3 3 1 2 8 8 6 7 5 4 7 8 7 6 5 4 5 5 2 3 5 5 6 8 10 12 14 16 18 18 18 18 17 17 17 17 17 18 20 21 21 21 20 19 18 16 15 15 16 17 17 16 14 13 14 15 11 6 3 2 6 15 18 16 18 19 19 21 22 23 25 25 25 26 24 22 23 22 20 20 20 19 19
1 2 2 2 4 2 3 4 5 4 3 1 2 4 6 6 7 7 5 7 8 6 6 7 8 9 10 10 12 13 16 18 20 20 19 18 17 17 17 18 20 21 21 21 21 21 19 19 18 18 18 19 20 20 19 18 18 17 17 14 10 9 8 9 13 16 16 18 20 21 23 22 21 21 22 24 25 23 22 22 21 21 20 19 19 19
3 3 2 1 4 3 2 1 3 2 1 3 1 4 5 4 5 7 8 10 9 10 12 12 11 11 13 15 17 20 21 22 24 24 22 21 20 18 19 20 20 21 21 21 20 20 19 19 19 19 19 19 20 22 21 20 21 20 20 20 19 17 15 13 11 11 12 14 15 17 22 24 23 21 22 23 23 23 23 22 21 21 19 18 18 17
2 3 2 2 2 3 2 1 3 3 1 1 1 5 6 4 5 5 8 9 8 8 11 12 11 12 15 17 19 22 25 27 28 27 24 23 22 21 22 22 21 21 22 21 20 19 18 18 19 19 19 19 20 21 22 22 22 22 23 24 24 23 22 19 16 12 10 9 8 8 13 20 23 23 23 24 23 22 23 22 20 20 19 18 16 15
4 3 2 3 2 3 4 3 3 4 1 3 2 4 4 3 3 2 3 6 7 6 9 11 10 11 13 16 19 21 23 24 23 21 21 22 23 24 24 23 22 21 21 20 20 19 17 17 17 17 17 19 20 21 20 21 22 23 23 24 25 25 24 23 21 18 14 11 10 9 9 12 16 17 19 21 22 22 24 23 20 18 17 16 15 15
4 4 2 2 2 3 5 4 3 3 2 1 2 5 5 2 1 3 1 3 6 4 9 11 10 11 13 15 17 14 11 14 10 9 15 18 20 22 23 23 23 22 21 20 19 18 17 15 15 16 16 18 21 20 19 19 21 23 24 25 26 27 26 26 25 23 20 17 14 13 13 13 13 13 14 16 17 18 20 20 18 17 16 16 16 17
4 3 2 2 1 3 5 4 2 2 2 1 4 7 7 4 3 3 1 2 7 6 9 13 9 10 11 11 10 6 4 6 3 5 12 14 15 18 21 22 23 23 21 20 19 19 19 16 15 14 15 18 20 19 18 18 20 22 24 25 25 25 27 27 25 24 24 24 21 18 16 15 15 15 14 13 12 13 15 16 16 16 16 16 16 17
4 2 3 3 1 2 4 3 2 3 2 2 6 9 9 6 3 2 3 3 7 9 10 12 10 10 10 11 11 6 5 6 6 7 12 14 14 17 18 20 21 22 22 21 21 20 19 18 16 16 16 18 19 17 16 17 19 22 23 23 23 24 25 24 23 22 22 23 25 24 23 22 20 17 15 13 12 13 15 15 16 16 15 15 14 16
3 3 3 2 2 4 5 4 2 2 2 4 9 10 9 5 1 1 2 2 4 11 14 14 14 13 13 17 19 14 12 15 17 16 18 18 19 19 19 19 19 20 21 22 21 20 19 19 19 18 18 18 17 17 16 16 18 21 22 23 24 23 21 20 19 20 21 22 23 24 24 25 26 24 22 19 15 13 14 15 15 14 14 13 13 13
2 3 3 3 2 2 3 4 2 3 2 7 13 10 6 1 2 1 2 2 7 14 17 18 19 19 21 25 27 25 24 24 22 21 20 20 20 20 20 21 20 21 21 22 21 21 21 20 19 19 18 17 16 17 16 15 18 20 20 22 24 23 19 17 16 17 18 20 21 22 23 23 24 24 23 23 23 21 17 16 15 13 12 11 11 11
2 1 2 3 2 2 3 3 3 2 3 12 12 6 4 3 2 4 10 12 14 17 20 20 20 23 28 30 29 28 27 24 22 21 19 18 18 18 19 20 21 22 22 22 22 22 22 22 21 19 19 17 15 16 16 15 17 17 17 20 22 21 19 18 16 14 15 17 18 18 19 20 22 23 24 24 24 24 22 20 19 18 16 13 11 10
4 1 2 0 2 1 2 2 1 1 5 11 8 3 4 6 7 11 15 17 17 19 23 24 21 22 28 32 29 27 26 24 23 22 20 19 18 17 16 17 18 20 21 21 21 21 21 22 21 20 19 18 16 15 14 14 15 15 16 17 18 17 17 18 16 14 14 15 15 16 16 16 17 19 21 22 23 23 21 19 18 19 18 17 16 14
4 5 6 4 2 3 4 4 4 5 7 10 11 10 12 14 14 17 21 22 20 21 26 28 25 23 26 29 29 26 25 24 23 22 22 22 21 20 20 19 18 18 19 18 19 19 20 20 20 19 19 18 17 16 15 13 12 13 14 14 13 13 14 15 14 14 15 15 15 15 14 13 13 15 15 16 18 20 20 19 18 18 18 18 18 16
6 8 7 5 5 7 9 9 8 10 12 13 14 17 19 20 20 21 25 26 24 24 26 28 27 25 24 25 27 26 24 22 21 20 19 19 18 18 20 21 22 21 20 20 19 18 18 19 19 19 19 18 17 17 17 15 13 13 13 11 9 10 11 11 12 13 13 14 14 14 13 12 12 11 11 11 12 13 15 16 17 18 18 18 18 17
6 9 7 3 3 4 5 5 7 11 14 16 18 21 23 23 22 24 27 27 26 26 26 26 26 25 23 23 24 23 21 20 20 19 19 18 17 16 16 18 20 21 20 21 20 18 17 18 19 20 20 19 17 15 16 17 17 16 15 12 10 8 7 6 8 9 10 10 11 11 11 11 11 10 8 8 8 8 9 10 11 13 14 15 16 16
3 8 8 5 4 5 5 7 12 16 17 18 19 22 23 23 23 24 25 26 25 24 23 23 23 22 21 20 20 20 19 17 17 17 17 17 17 16 15 16 17 17 17 17 18 19 18 19 19 19 19 19 17 14 14 16 16 15 14 14 13 11 9 8 7 6 7 7 7 7 7 7 8 7 7 6 6 5 5 6 7 8 9 11 12 12
8 6 5 5 6 7 8 10 15 16 16 17 19 20 22 24 25 25 24 24 24 23 22 21 20 20 20 19 18 18 17 16 15 14 14 15 15 15 14 14 14 14 13 12 13 16 17 16 15 15 16 16 16 13 11 13 14 13 11 11 11 12 13 13 11 9 8 7 6 6 7 7 8 8 8 7 5 4 5 6 7 8 8 9 10 10
11 6 4 5 5 4 5 7 10 9 9 13 17 20 22 24 26 26 25 24 23 23 22 22 21 20 19 18 17 17 16 14 13 13 14 13 13 13 14 13 13 13 13 12 12 13 13 12 11 12 14 14 13 12 10 10 11 12 11 10 10 11 13 15 14 13 12 11 9 9 10 10 11 11 11 11 9 8 8 8 8 7 8 8 8 8
10 7 6 6 6 8 12 16 16 14 14 15 18 20 21 23 24 24 24 23 22 22 22 21 21 19 17 16 16 16 16 14 12 11 12 11 11 12 13 14 15 15 13 13 13 12 10 10 11 11 13 13 10 9 10 8 10 12 13 11 10 9 10 12 14 14 15 15 14 13 12 12 12 12 12 13 13 13 12 11 11 11 9 8 6 5
Wind_Direction
189 183 207 212 225 227 228 225 231 247 247 255 269 264 253 251 258 268 240 173 163 160 187 183 184 227 269 284 299 320 293 210 166 147 152 161 163 166 169 176 180 177 177 178 185 199 195 192 189 177 176 172 167 164 158 157 173 187 194 202 206 196 192 196 185 169 173 199 196 186 196 207 211 209 203 198 201 211 211 208 209 208 206 200 198 201
188 188 222 219 224 227 233 230 227 250 262 265 278 283 296 301 270 294 285 181 166 129 189 166 147 246 277 292 299 313 316 258 197 156 148 156 164 168 171 180 186 183 186 187 192 201 193 181 173 167 171 167 164 168 159 148 166 191 196 203 210 212 213 209 202 183 173 190 195 195 201 194 205 212 205 201 199 201 209 208 202 196 195 194 195 197
186 212 225 220 226 227 237 242 224 233 253 266 281 300 306 304 291 309 309 204 162 114 184 162 156 247 262 276 295 302 301 279 232 178 163 160 160 169 177 179 185 187 193 200 205 205 190 173 169 171 176 169 167 171 151 128 158 222 214 211 214 213 208 196 192 189 180 184 190 199 205 189 190 200 200 202 197 194 199 196 193 191 191 193 195 194
176 219 223 218 226 229 237 246 234 231 242 249 253 271 278 276 284 301 311 298 135 150 186 156 166 248 279 309 307 295 292 294 277 200 173 172 170 176 185 185 186 189 197 205 211 212 195 175 180 185 181 173 179 182 162 139 184 234 221 217 216 208 202 198 198 200 189 181 178 180 190 191 189 191 193 195 192 192 191 185 186 187 188 192 194 193
225 221 216 212 220 227 236 242 235 231 249 248 226 215 247 267 271 273 301 312 331 304 214 130 77 273 241 296 304 291 289 290 284 251 187 180 183 186 189 190 191 193 201 204 207 213 200 186 194 194 185 181 187 189 174 162 173 200 205 210 213 209 205 202 201 197 186 177 169 166 174 182 186 187 188 187 186 187 185 181 182 184 186 190 191 189
239 239 222 208 211 220 231 238 229 218 233 254 222 212 256 292 301 301 312 321 353 336 287 146 310 285 226 214 251 271 279 274 266 261 231 198 191 189 188 188 191 194 201 205 207 207 195 189 195 190 186 185 186 188 183 180 182 183 191 200 206 208 206 201 197 190 183 177 173 174 177 180 185 190 190 189 188 184 182 182 182 182 183 184 184 183
224 242 236 217 209 210 215 227 226 207 189 235 273 301 260 266 288 293 300 305 335 283 286 317 245 276 288 244 242 240 253 257 250 250 251 234 206 187 184 187 190 191 196 203 206 194 178 183 189 184 185 186 184 186 191 196 192 183 186 197 204 209 207 199 194 188 183 181 180 183 185 181 185 193 193 189 189 185 182 183 184 183 182 181 180 181
203 226 238 234 222 209 208 221 216 180 145 201 220 260 257 238 239 258 268 269 269 267 296 2 108 273 294 268 259 253 248 252 262 265 271 284 206 170 175 185 188 190 194 199 193 167 163 181 187 184 183 182 179 182 194 200 196 191 193 203 210 216 215 203 196 192 189 189 186 182 184 185 186 191 189 185 186 186 184 185 186 185 184 182 181 184
199 208 222 231 230 220 209 204 185 162 150 199 198 225 250 247 229 231 237 240 254 265 291 344 35 331 279 274 280 277 268 256 290 18 61 50 82 141 164 175 182 188 189 190 188 180 187 194 196 197 191 180 176 182 197 201 197 200 207 212 213 217 220 211 199 195 195 195 188 180 180 183 184 186 187 184 184 185 185 186 185 184 186 184 182 186
222 218 218 219 224 227 222 188 163 163 172 191 206 231 249 261 253 224 203 206 233 251 269 299 68 259 275 301 311 290 307 306 68 86 73 76 99 124 142 157 168 178 178 183 199 204 209 209 206 204 193 177 174 183 193 199 197 199 208 212 208 208 214 214 205 199 197 195 190 186 183 184 183 182 184 185 184 185 186 185 184 185 187 185 183 187
257 246 234 222 221 219 216 204 185 206 199 175 201 233 254 270 286 297 174 104 58 280 261 246 203 201 262 321 359 12 4 343 59 74 52 83 104 112 124 140 142 147 156 171 195 201 206 208 204 199 191 180 184 191 193 196 193 192 203 210 208 207 210 214 210 204 201 197 193 191 189 189 187 182 183 185 184 185 185 184 186 188 189 189 186 187
266 256 252 233 221 205 188 211 227 233 223 185 185 196 233 284 311 332 330 75 58 261 249 261 253 223 232 283 349 1 7 15 41 51 45 76 97 102 110 117 114 119 133 142 157 167 175 187 193 196 193 189 196 199 193 192 187 185 197 207 212 214 213 214 214 208 205 203 198 195 194 195 192 187 187 187 184 184 183 182 186 187 188 190 185 182
268 250 235 214 207 193 172 210 243 271 244 226 182 155 172 295 344 328 308 126 195 247 235 253 263 243 215 238 309 10 16 17 33 52 63 78 82 80 86 88 89 97 105 116 128 121 111 140 173 188 191 194 204 200 184 185 186 184 194 207 217 223 220 218 216 209 207 209 205 199 195 196 193 189 190 190 186 185 183 182 184 184 185 187 183 176
288 265 227 196 174 183 194 190 180 251 244 218 188 140 154 165 153 246 259 194 220 247 227 216 232 250 263 254 298 3 24 34 45 56 68 85 89 78 77 79 84 94 100 115 137 133 109 132 180 196 211 244 264 215 177 183 191 191 203 215 220 228 229 222 216 210 207 211 212 204 197 195 192 186 185 188 188 186 183 183 183 183 184 183 180 171
250 274 230 213 173 164 185 212 201 212 235 219 199 150 155 158 167 218 205 190 228 261 246 190 174 209 202 235 273 340 37 53 54 53 58 70 82 82 78 76 74 74 75 72 80 116 206 237 229 234 249 316 346 317 197 203 200 194 206 217 219 230 235 220 207 206 205 206 212 212 203 196 191 185 180 181 184 183 181 181 179 176 177 177 173 167
223 249 214 209 210 168 173 211 220 242 297 244 203 161 182 186 170 213 225 201 179 65 332 54 141 199 197 256 282 6 47 55 55 50 51 56 63 69 64 59 60 62 65 65 65 70 63 328 240 253 249 244 353 322 223 217 204 193 202 212 216 227 233 213 196 200 204 203 205 206 203 202 195 184 177 176 180 181 180 180 175 170 170 170 165 160
208 257 232 201 211 196 184 192 182 179 227 271 229 187 200 190 156 177 240 239 126 119 259 168 122 300 350 315 313 42 57 54 56 51 49 48 51 55 49 46 51 54 60 62 59 61 56 53 104 248 262 229 225 237 228 221 210 199 201 210 214 219 222 211 198 199 204 203 200 196 197 207 201 185 180 180 179 180 179 177 174 168 165 164 162 159
188 257 273 216 212 223 218 205 171 169 187 233 269 220 191 181 166 159 228 279 95 178 257 166 148 191 147 263 313 47 64 55 55 51 47 46 46 46 45 52 57 52 54 60 61 66 64 66 89 105 128 184 197 206 209 216 217 203 198 207 212 214 216 214 205 199 198 202 203 199 194 201 200 190 188 185 181 180 175 172 172 167 162 161 160 160
191 242 286 236 214 249 239 223 186 180 190 199 239 231 178 159 217 232 209 221 143 178 269 153 127 117 132 233 334 28 55 55 51 44 43 45 44 40 43 59 68 64 61 62 64 72 79 87 93 91 93 120 170 183 192 208 216 205 194 193 198 203 204 205 203 197 196 200 202 200 197 199 198 194 192 187 184 180 172 169 168 165 165 163 160 161
191 173 290 253 217 226 228 207 207 208 196 201 235 253 222 171 174 199 213 194 151 170 234 115 85 39 241 316 23 41 50 58 59 48 39 41 45 43 43 59 73 77 71 62 58 62 68 80 93 107 118 118 102 141 178 197 204 209 201 188 184 189 192 192 192 193 197 196 188 186 197 201 196 194 194 190 185 178 171 169 166 166 169 166 163 166
209 142 229 272 283 232 223 185 191 205 187 195 228 256 268 240 172 180 252 219 156 159 189 147 169 257 245 60 65 74 70 71 76 65 43 44 51 51 53 63 70 76 74 63 53 46 43 47 53 80 113 108 60 127 163 176 189 208 213 198 190 190 192 190 188 190 193 185 173 178 193 196 190 188 190 189 184 175 171 169 167 169 170 167 167 169
346 141 187 252 296 255 258 209 185 200 206 184 187 206 220 215 157 170 269 273 137 117 154 148 186 265 282 73 85 87 79 80 78 68 52 50 55 54 55 61 62 66 70 68 59 50 40 39 45 51 59 59 53 76 141 162 170 179 190 197 200 202 204 201 194 192 193 182 173 178 188 186 182 182 183 184 179 173 172 169 167 171 171 168 167 164
61 110 132 234 239 239 275 272 195 224 250 230 157 217 223 207 180 169 221 258 42 70 99 109 112 275 327 66 82 86 85 84 77 73 68 60 59 53 50 53 54 58 64 68 69 64 56 61 73 64 50 48 63 72 76 126 150 157 171 185 201 214 212 205 194 189 190 184 177 178 182 178 178 179 179 181 178 174 173 171 172 174 170 166 160 157
4 41 39 284 262 291 305 304 346 12 306 294 18 9 347 266 231 189 185 168 126 146 126 90 85 250 77 74 84 89 88 83 77 79 80 70 63 54 48 49 49 52 60 67 68 66 66 73 81 78 62 50 58 67 63 96 134 141 149 169 192 209 204 199 193 188 189 186 177 177 179 175 176 179 179 181 180 176 169 169 176 176 168 161 154 156
339 13 50 35 340 348 341 328 352 16 19 59 45 17 10 351 345 26 113 78 113 191 152 120 202 240 117 93 87 84 84 82 79 82 84 76 67 57 49 49 48 50 58 64 62 61 65 69 70 72 73 67 67 70 63 69 97 109 128 158 181 198 198 194 190 187 189 187 179 178 178 173 173 177 178 178 177 173 163 160 165 168 167 161 154 160
360 291 66 91 111 147 83 340 301 313 332 8 18 25 21 4 6 42 41 38 75 192 139 133 178 177 119 104 91 84 89 89 84 85 86 80 73 64 56 50 45 45 51 56 59 59 61 66 67 69 72 74 74 73 68 61 52 54 86 144 174 198 199 191 186 183 183 183 180 177 174 171 172 173 173 170 168 167 163 159 161 164 164 156 155 164
71 9 47 103 121 151 169 178 185 201 7 16 12 24 27 8 11 66 74 39 19 3 53 149 154 137 128 117 106 94 87 82 78 81 82 80 76 72 66 58 50 47 48 51 58 62 63 65 67 67 67 71 73 72 69 66 62 62 67 99 168 195 194 187 184 180 177 180 182 178 173 171 170 167 165 166 167 168 167 167 170 169 160 156 161 168
90 16 20 76 86 129 164 122 108 106 74 52 33 27 24 17 27 54 73 81 79 47 327 263 132 128 130 120 111 100 88 82 75 76 78 80 78 75 71 63 55 52 48 48 55 61 64 65 64 64 65 67 69 68 69 69 67 72 73 74 159 190 188 185 184 181 180 183 181 176 173 171 167 164 164 169 172 171 171 171 172 167 160 161 167 165
117 95 356 80 72 79 87 75 89 96 81 66 54 36 19 17 31 54 68 266 104 113 232 62 98 99 99 100 94 79 75 76 74 74 74 73 69 67 68 63 55 50 46 47 53 58 63 64 64 64 66 69 70 68 72 77 73 72 68 55 66 178 187 187 183 179 180 183 179 175 174 173 169 166 167 173 175 174 173 170 166 162 160 161 162 159
101 250 237 93 59 50 79 79 88 93 83 63 50 41 28 17 20 46 50 301 88 111 124 94 89 79 63 76 80 73 72 72 70 68 65 64 63 62 63 61 56 51 47 48 56 63 67 70 74 77 76 76 77 75 77 82 81 78 73 55 49 128 193 195 185 175 172 180 183 179 176 174 171 167 167 170 172 171 168 165 162 161 162 160 155 156
77 253 229 90 50 43 96 90 86 93 92 71 42 27 27 25 11 18 20 349 46 118 131 113 96 86 70 73 74 71 68 65 64 62 60 61 63 64 63 61 59 56 56 58 63 70 76 80 84 89 83 72 69 71 75 74 70 69 66 52 52 75 162 188 183 174 171 180 184 180 175 171 167 165 165 163 162 161 161 161 158 157 160 159 153 152
105 238 257 101 82 12 103 102 102 101 90 70 39 14 8 13 18 27 36 9 353 130 135 119 99 101 94 81 72 66 63 61 58 59 62 62 62 65 65 63 63 63 65 68 68 71 77 81 85 87 81 73 67 66 70 68 60 54 51 51 64 78 168 183 175 172 174 178 181 179 177 173 168 166 163 160 160 159 157 156 155 153 155 156 154 153
132 131 165 141 122 93 115 123 128 113 87 61 14 358 342 344 18 36 53 50 27 27 116 112 110 113 102 87 77 69 63 61 56 56 62 65 63 66 67 67 68 70 71 70 70 72 75 78 83 84 81 80 76 71 69 67 63 61 62 65 75 73 74 150 162 169 176 179 181 183 182 182 178 169 161 161 165 162 156 153 154 155 155 156 157 156
155 162 226 171 121 160 211 152 124 97 92 173 297 345 327 334 27 45 38 45 60 69 65 71 85 91 88 85 86 83 75 69 65 61 62 67 67 66 68 71 72 73 73 73 73 75 77 80 84 88 87 87 87 85 82 78 74 73 74 74 76 79 83 109 143 161 171 176 182 184 182 186 189 175 162 162 165 163 158 155 154 155 156 157 159 158
191 191 247 113 112 146 222 115 90 97 185 190 180 3 346 339 29 65 58 40 53 80 83 80 80 83 91 94 94 94 88 80 72 65 61 65 69 69 71 73 74 75 75 74 74 75 78 82 86 88 90 91 93 95 95 92 89 86 85 82 79 78 78 80 102 134 155 164 175 182 180 183 187 182 171 168 167 163 157 155 155 156 157 160 159 156
264 230 182 141 130 124 121 70 105 142 188 120 47 7 12 1 355 41 62 43 37 71 91 96 99 100 103 105 103 101 95 84 73 64 61 65 69 71 72 74 74 76 76 75 74 73 73 76 80 84 89 94 99 101 100 98 99 98 96 93 89 84 80 77 80 94 111 123 135 155 171 176 180 180 174 171 173 172 162 155 155 155 155 159 161 154
10 291 202 152 151 116 105 83 109 133 84 27 9 350 11 26 342 347 60 49 36 65 103 111 115 117 115 117 120 115 97 81 67 55 56 62 64 65 69 71 71 73 77 78 77 75 72 72 76 81 88 96 99 101 102 102 104 105 104 100 95 91 88 84 81 86 95 105 115 120 134 156 169 174 173 172 177 178 168 158 159 163 162 164 168 166
33 293 272 155 153 121 113 111 121 152 161 37 353 333 343 360 296 289 167 68 19 47 119 122 122 129 135 140 145 138 95 70 60 41 49 58 61 61 61 64 66 67 70 74 77 80 79 75 77 80 86 92 94 96 102 107 108 107 105 102 96 92 92 87 81 81 86 92 106 123 132 142 151 160 168 173 181 184 177 169 170 177 179 180 182 182
38 313 347 53 118 125 122 126 126 142 140 40 331 323 334 348 321 299 150 96 346 358 115 129 128 134 147 155 153 144 69 81 96 35 47 58 65 65 61 58 60 60 60 65 70 75 78 80 85 88 84 81 81 84 94 105 111 110 105 101 99 96 94 90 84 82 84 86 93 104 116 128 141 149 156 164 173 179 179 178 179 181 184 185 184 184
22 360 31 24 353 95 102 99 82 95 99 6 326 315 318 324 310 276 156 129 356 18 91 118 116 119 127 121 105 70 50 108 122 73 69 77 80 79 71 62 58 55 53 57 63 68 74 81 89 92 83 74 70 71 79 92 104 108 105 103 103 99 95 92 91 91 93 93 93 95 97 100 104 110 119 133 152 166 171 171 171 174 176 175 173 176
14 20 58 56 47 74 97 105 85 91 92 333 319 312 309 299 232 153 182 204 29 55 86 101 100 105 109 104 100 88 82 100 106 98 93 91 85 83 80 74 70 63 56 55 58 62 67 70 75 79 78 75 74 74 73 77 84 87 91 96 98 95 93 98 101 102 102 102 100 99 98 97 95 93 94 99 111 137 163 168 164 164 165 163 162 167
357 352 25 43 22 25 83 103 99 110 62 336 323 320 331 311 186 116 60 97 89 86 95 100 101 107 107 101 102 104 103 104 104 101 98 94 89 86 84 81 79 74 66 59 57 60 62 62 64 67 68 71 75 77 77 78 76 72 70 74 79 83 89 98 104 108 110 110 107 106 105 105 105 103 100 97 97 102 115 127 129 132 141 149 156 165
11 14 57 49 2 360 63 76 95 136 4 349 338 327 359 28 155 114 82 88 96 96 97 97 99 109 111 106 104 108 108 105 101 98 95 93 91 88 86 83 78 74 70 64 59 60 60 59 59 59 59 61 66 73 76 76 77 75 66 58 61 70 79 83 87 97 106 108 107 108 111 112 113 111 108 106 105 103 104 109 112 114 118 123 129 138
341 321 133 150 308 8 77 73 75 101 13 10 20 54 49 64 124 129 106 97 96 98 102 101 100 107 112 111 109 108 105 100 95 91 87 83 80 80 82 84 81 77 75 70 67 64 61 59 57 56 56 58 61 68 73 72 74 79 74 60 55 59 65 70 75 83 90 94 96 99 105 110 113 114 113 113 112 109 106 108 113 114 115 115 113 110
44 72 85 82 59 59 79 98 92 81 62 49 57 75 83 94 114 121 113 105 101 103 107 107 106 107 109 110 109 106 101 96 91 85 80 74 70 68 67 67 67 67 67 67 68 67 64 61 57 55 55 57 59 63 68 69 73 78 75 65 59 58 57 57 64 72 77 80 83 86 91 98 104 111 116 119 120 117 113 112 114 116 116 118 118 117
111 105 90 84 103 86 75 85 92 84 76 70 72 83 93 101 106 109 108 105 105 107 109 110 112 112 110 108 106 103 101 96 89 82 76 71 67 63 60 58 57 57 57 57 58 58 59 59 54 51 51 52 55 59 61 62 66 68 65 62 61 62 58 50 47 52 59 66 70 73 75 80 87 96 104 111 119 123 123 122 124 124 124 124 124 125
61 80 81 87 131 106 69 73 91 89 83 79 83 90 96 99 102 105 106 106 107 108 109 111 113 112 108 106 105 103 101 96 91 86 80 77 74 68 61 58 56 54 54 55 53 51 54 53 49 47 45 45 50 60 64 63 62 60 59 58 58 62 68 66 54 43 39 46 54 58 61 65 68 71 79 87 95 108 121 130 135 137 138 137 134 132
76 80 77 64 70 84 87 95 96 91 87 85 87 91 95 98 101 104 107 109 109 109 109 110 110 107 105 104 105 106 105 99 93 88 81 76 74 71 66 63 59 53 52 51 47 49 55 57 54 53 48 41 42 55 68 70 66 63 62 60 59 59 58 58 61 55 45 40 41 45 52 58 58 57 63 73 81 94 116 137 150 154 154 154 152 148
105 97 90 93 95 93 101 112 107 96 87 87 90 93 97 102 105 106 108 111 111 111 111 111 109 107 106 106 106 106 104 98 91 88 85 80 77 74 72 71 65 61 64 62 49 48 57 63 61 60 55 44 34 36 57 72 70 67 70 70 67 67 62 56 56 60 60 55 56 65 70 69 66 66 68 73 86 108 126 140 153 164 167 168 170 170
98 110 118 114 110 96 93 112 116 106 96 100 102 102 105 108 109 109 110 111 111 111 111 110 110 109 108 107 105 102 100 96 91 89 87 81 78 78 78 75 66 61 70 78 71 65 72 68 51 51 62 59 42 31 44 72 77 69 72 79 77 76 74 72 72 72 69 70 79 88 86 78 76 77 74 71 74 86 102 116 127 143 160 168 177 185
95 114 120 107 105 105 103 107 109 107 108 114 115 112 111 112 111 110 110 111 111 111 111 109 106 105 106 103 96 91 95 97 94 92 86 76 72 77 79 80 76 68 68 75 69 64 65 48 26 36 61 67 52 30 32 58 78 73 71 75 80 86 89 85 84 83 79 78 82 86 84 77 72 73 74 72 70 72 78 89 96 102 111 120 127 143